Location: Ernsee
(50.8780°N, 12.0389°E)
Time: 01:27:24
(UTC+00:00)

Nadezhda 3 Rocket - Pass Details

Date: 20 January 2020
Orbit: 958 x 999 km, 82.9° (Epoch: 28 February)

Event Time Altitude Azimuth Distance (km) Brightness Sun altitude
Rises 06:06:25 0° 184° (S) 3,626 7.2 -9.0°
Reaches altitude 10° 06:08:53 10° 183° (S) 2,684 6.6 -8.6°
Maximum altitude 06:15:01 82° 98° (E) 977 4.2 -7.7°
Drops below altitude 10° 06:21:14 10° 11° (NNE) 2,716 6.2 -6.8°
Sets 06:23:46 0° 11° (N) 3,672 6.9 -6.4°
